Stations météo

réclame
Mon MeteoGroup
Maastricht, Pays-Bas (6380): Température de l'air & dewpoint: 10.08.2018 03:00:00 - 16.08.2018 03:00:00 (CEST)Maastricht, Pays-Bas (6380): Température de l'air 5cm: 10.08.2018 03:00:00 - 16.08.2018 03:00:00 (CEST)Maastricht, Pays-Bas (6380): Vitesse du vent & gusts: 10.08.2018 03:00:00 - 16.08.2018 03:00:00 (CEST)Maastricht, Pays-Bas (6380): Direction du vent: 10.08.2018 03:00:00 - 16.08.2018 03:00:00 (CEST)Maastricht, Pays-Bas (6380): reduced air pressure: 10.08.2018 03:00:00 - 16.08.2018 03:00:00 (CEST)Maastricht, Pays-Bas (6380): visibility: 10.08.2018 03:00:00 - 16.08.2018 03:00:00 (CEST)Maastricht, Pays-Bas (6380): Quantités de précipitations: 10.08.2018 03:00:00 - 16.08.2018 03:00:00 (CEST)
Date & Time tt [°C] td [°C] tt 5cm [°C] ff [km/h] ff [knt] fx [km/h] fx [knt] dd ppp [hPa] vv [km] rr [mm]
16.08.2018 03:00:00 14,8 13,3 13,3 8 4 11 6 S 1018,4 10 0,0
16.08.2018 02:00:00 15,1 13,5 13,9 9 5 11 6 S 1018,7 10 0,0
16.08.2018 01:00:00 15,5 13,9 13,6 9 5 11 6 SSW 1019,0 10 0,0
16.08.2018 00:00:00 15,7 13,9 14,2 9 5 11 6 SSW 1019,2 10 0,0
15.08.2018 23:00:00 16,7 14,6 14,5 8 4 11 6 S 1019,1 10 0,0
15.08.2018 22:00:00 17,6 15,1 15,1 5 3 11 6 S 1019,2 10 0,0
15.08.2018 21:00:00 18,8 15,1 17,8 9 5 18 10 SW 1019,1 10 0,0
15.08.2018 20:00:00 20,7 15,2 21,1 13 7 22 12 WSW 1019,1 10 0,0
15.08.2018 19:00:00 21,9 15,3 23,2 15 8 25 14 WSW 1019,0 10 0,0
15.08.2018 18:00:00 22,2 14,8 23,0 16 9 22 12 WSW 1019,4 10 0,0
15.08.2018 17:00:00 22,2 15,0 23,1 13 7 22 12 SW 1019,5 10 0,0
15.08.2018 16:00:00 21,9 15,7 22,4 13 7 25 14 WSW 1019,7 10 0,0
15.08.2018 15:00:00 22,2 15,7 24,8 22 12 29 16 SW 1019,7 10 0,0
15.08.2018 14:00:00 22,7 16,3 25,1 18 10 25 14 SW 1019,9 10 0,0
15.08.2018 13:00:00 20,3 15,9 21,7 21 11 29 16 SW 1020,3 10 0,0
15.08.2018 12:00:00 19,0 15,8 19,9 22 12 29 16 SW 1020,4 10 0,0
15.08.2018 11:00:00 18,7 16,1 19,2 22 12 25 14 SW 1020,3 10 0,0
15.08.2018 10:00:00 17,6 15,3 18,0 18 10 22 12 SW 1020,0 10 0,0
15.08.2018 09:00:00 16,7 14,6 16,9 18 10 22 12 SSW 1019,6 10 0,0
15.08.2018 08:00:00 15,9 14,1 15,8 22 12 25 14 SSW 1019,3 10 0,0
15.08.2018 07:00:00 15,6 13,9 15,4 18 10 25 14 SSW 1018,8 10 0,0
15.08.2018 06:00:00 15,1 13,5 14,5 16 9 18 10 SW 1018,6 10 0,0
15.08.2018 05:00:00 14,6 13,2 14,0 15 8 18 10 SW 1018,7 10 0,0
15.08.2018 04:00:00 15,5 13,3 14,6 11 6 14 8 SW 1018,9 10 0,0
15.08.2018 03:00:00 17,0 13,8 16,5 9 5 14 8 WSW 1019,0 10 0,0
15.08.2018 02:00:00 16,3 14,1 15,9 9 5 11 6 SSW 1019,1 10 0,0
15.08.2018 01:00:00 16,4 14,0 15,7 8 4 11 6 SSW 1019,2 10 0,0
15.08.2018 00:00:00 15,7 13,4 14,3 8 4 7 4 SSW 1018,9 10 0,0
14.08.2018 23:00:00 17,3 13,5 15,5 4 2 11 6 - 1018,6 10 0,0
14.08.2018 22:00:00 18,4 13,7 17,8 5 3 18 10 WNW 1018,6 10 0,0
14.08.2018 21:00:00 19,5 15,2 19,0 8 4 18 10 W 1017,8 10 0,0
14.08.2018 20:00:00 20,5 16,0 20,7 8 4 14 8 W 1017,2 10 0,0
14.08.2018 19:00:00 20,2 16,2 20,4 9 5 22 12 WNW 1017,1 10 0,0
14.08.2018 18:00:00 20,7 15,9 21,6 9 5 22 12 WNW 1016,8 10 0,0
14.08.2018 17:00:00 20,0 15,7 20,5 9 5 29 16 WNW 1016,9 10 0,0
14.08.2018 16:00:00 20,0 16,6 20,8 15 8 25 14 WSW 1016,4 10 0,0
14.08.2018 15:00:00 19,6 16,7 19,4 9 5 36 19 W 1016,2 10 0,1
14.08.2018 14:00:00 20,8 16,1 21,4 15 8 18 10 W 1015,5 10 0,0
14.08.2018 13:00:00 20,8 16,4 21,4 11 6 22 12 WSW 1015,1 10 0,0
14.08.2018 12:00:00 19,8 16,1 20,1 9 5 25 14 W 1015,0 10 0,0
14.08.2018 11:00:00 19,4 16,2 20,3 15 8 22 12 W 1014,6 10 0,1
14.08.2018 10:00:00 17,5 16,3 17,5 9 5 25 14 W 1014,3 6 0,1
14.08.2018 09:00:00 17,3 16,1 17,1 13 7 22 12 WSW 1013,7 6 0,0
14.08.2018 08:00:00 16,5 15,6 16,5 15 8 29 16 WSW 1012,9 6 0,0
14.08.2018 07:00:00 16,2 15,0 16,1 18 10 25 14 SW 1012,4 8 0,0
14.08.2018 06:00:00 15,9 14,7 15,8 21 11 29 16 SW 1011,7 10 0,0
14.08.2018 05:00:00 15,7 14,4 15,5 16 9 25 14 SW 1011,5 10 0,0
14.08.2018 04:00:00 16,2 14,4 16,1 18 10 25 14 SW 1011,3 10 0,0
14.08.2018 03:00:00 16,4 14,6 16,2 18 10 22 12 SW 1011,0 10 0,0
14.08.2018 02:00:00 16,4 14,6 15,9 18 10 25 14 SW 1010,7 10 0,0
14.08.2018 01:00:00 17,2 15,4 16,7 16 9 25 14 SW 1010,3 10 0,0
14.08.2018 00:00:00 17,3 15,3 16,9 15 8 22 12 SW 1009,7 10 0,0
13.08.2018 23:00:00 16,7 15,1 16,2 15 8 22 12 SW 1009,4 10 0,0
13.08.2018 22:00:00 16,9 15,6 16,6 15 8 18 10 SW 1008,9 10 0,0
13.08.2018 21:00:00 17,5 15,5 16,9 16 9 22 12 SW 1008,6 10 0,0
13.08.2018 20:00:00 18,5 15,0 18,9 15 8 22 12 SW 1008,2 10 0,0
13.08.2018 19:00:00 17,9 14,7 18,3 22 12 32 18 SW 1008,0 10 0,3
13.08.2018 18:00:00 18,5 15,1 18,5 21 11 32 18 SW 1007,8 10 0,0
13.08.2018 17:00:00 18,4 16,5 18,3 16 9 29 16 SW 1007,4 10 1,0
13.08.2018 16:00:00 18,0 16,3 17,9 16 9 32 18 WSW 1007,3 10 2,0
13.08.2018 15:00:00 17,2 15,6 16,7 35 19 43 23 SW 1007,4 3,3 3,0
13.08.2018 14:00:00 20,7 17,7 21,3 26 14 40 21 SSW 1006,3 10 0,4
13.08.2018 13:00:00 18,0 15,7 17,8 24 13 40 21 SW 1007,0 10 2,0
13.08.2018 12:00:00 20,1 16,3 20,6 22 12 36 19 SSW 1006,7 10 0,7
13.08.2018 11:00:00 19,5 16,0 20,3 16 9 32 18 SSW 1007,1 10 0,0
13.08.2018 10:00:00 20,3 16,9 20,2 24 13 29 16 SSW 1007,1 10 0,0
13.08.2018 09:00:00 16,8 15,3 16,6 15 8 22 12 S 1007,0 10 0,0
13.08.2018 08:00:00 16,5 15,1 16,2 15 8 25 14 SSE 1006,1 10 0,1
13.08.2018 07:00:00 16,5 15,3 16,2 16 9 25 14 SSE 1006,0 10 0,9
13.08.2018 06:00:00 16,5 15,0 16,3 22 12 29 16 SSW 1007,7 10 1,4
13.08.2018 05:00:00 17,8 13,6 17,0 13 7 18 10 SSW 1006,8 10 0,5
13.08.2018 04:00:00 20,4 10,9 19,7 13 7 32 18 WSW 1006,7 10 0,0
13.08.2018 03:00:00 19,7 9,7 18,5 9 5 11 6 SSE 1006,5 10 0,0
13.08.2018 02:00:00 20,0 9,1 18,7 9 5 18 10 SSE 1007,4 10 0,0
13.08.2018 01:00:00 20,3 9,1 19,2 9 5 18 10 SSE 1008,1 10 0,0
13.08.2018 00:00:00 20,6 8,6 18,2 13 7 14 8 SSE 1008,8 10 0,0
12.08.2018 23:00:00 18,9 9,4 15,1 9 5 11 6 SE 1009,4 10 0,0
12.08.2018 22:00:00 20,8 8,2 16,7 9 5 29 16 SSE 1009,9 10 0,0
12.08.2018 21:00:00 22,5 7,0 19,5 9 5 18 10 S 1010,3 10 0,0
12.08.2018 20:00:00 24,7 6,4 23,8 11 6 22 12 S 1010,3 10 0,0
12.08.2018 19:00:00 26,2 7,3 26,4 13 7 25 14 S 1010,8 10 0,0
12.08.2018 18:00:00 27,5 8,5 29,0 16 9 29 16 SSW 1011,3 10 0,0
12.08.2018 17:00:00 27,6 9,0 30,2 11 6 25 14 SSW 1012,0 10 0,0
12.08.2018 16:00:00 26,9 9,0 30,2 15 8 25 14 S 1012,7 10 0,0
12.08.2018 15:00:00 26,8 9,2 30,2 16 9 29 16 SSE 1013,7 10 0,0
12.08.2018 14:00:00 25,7 9,5 29,2 13 7 32 18 S 1014,7 10 0,0
12.08.2018 13:00:00 25,1 9,3 27,9 15 8 29 16 SSW 1015,5 10 0,0
12.08.2018 12:00:00 23,9 8,7 26,9 21 11 29 16 SSW 1016,1 10 0,0
12.08.2018 11:00:00 22,6 8,5 24,7 21 11 29 16 SSW 1016,5 10 0,0
12.08.2018 10:00:00 20,6 9,3 21,9 18 10 29 16 SSW 1017,0 10 0,0
12.08.2018 09:00:00 18,0 9,6 18,8 16 9 22 12 SSW 1017,4 10 0,0
12.08.2018 08:00:00 15,4 8,7 15,2 11 6 14 8 S 1017,6 10 0,0
12.08.2018 07:00:00 13,4 8,0 12,7 11 6 29 16 S 1017,9 10 0,0
12.08.2018 06:00:00 13,2 7,9 12,1 11 6 14 8 S 1018,1 10 0,0
12.08.2018 05:00:00 13,3 8,1 12,2 9 5 14 8 S 1018,7 10 0,0
12.08.2018 04:00:00 14,2 8,1 12,3 11 6 14 8 SSE 1019,4 10 0,0
12.08.2018 03:00:00 13,4 8,6 10,4 9 5 11 6 SSE 1020,0 10 0,0
12.08.2018 02:00:00 13,0 8,9 10,5 8 4 7 4 SSE 1020,4 10 0,0
12.08.2018 01:00:00 13,3 9,0 9,9 5 3 4 2 SSE 1021,1 10 0,0
12.08.2018 00:00:00 15,1 8,5 10,4 4 2 7 4 - 1021,5 10 0,0
11.08.2018 23:00:00 15,6 7,9 10,9 2 1 4 2 - 1021,7 10 0,0
11.08.2018 22:00:00 17,2 7,6 11,9 4 2 7 4 NNW 1021,9 10 0,0
11.08.2018 21:00:00 18,1 8,4 16,2 4 2 14 8 - 1021,8 10 0,0
11.08.2018 20:00:00 20,4 7,3 20,9 8 4 18 10 WNW 1021,9 10 0,0
11.08.2018 19:00:00 20,9 7,3 21,7 9 5 22 12 W 1022,2 10 0,0
11.08.2018 18:00:00 21,6 6,6 23,8 11 6 29 16 W 1022,1 10 0,0
11.08.2018 17:00:00 21,5 6,7 23,4 11 6 29 16 W 1022,6 10 0,0
11.08.2018 16:00:00 21,9 7,1 24,8 9 5 32 18 - 1023,0 10 0,0
11.08.2018 15:00:00 21,9 7,1 25,2 16 9 32 18 WSW 1023,1 10 0,0
11.08.2018 14:00:00 21,1 8,7 22,5 13 7 36 19 - 1023,5 10 0,0
11.08.2018 13:00:00 20,0 8,1 22,8 16 9 32 18 WSW 1023,5 10 0,0
11.08.2018 12:00:00 18,6 7,5 21,6 16 9 29 16 WSW 1023,6 10 0,0
11.08.2018 11:00:00 17,7 9,3 18,6 13 7 25 14 W 1023,5 10 0,0
11.08.2018 10:00:00 16,5 11,2 17,9 13 7 22 12 WSW 1023,6 10 0,0
11.08.2018 09:00:00 15,4 12,5 15,9 13 7 22 12 WSW 1023,3 10 0,0
11.08.2018 08:00:00 13,9 12,1 13,7 13 7 22 12 WSW 1022,7 10 0,0
11.08.2018 07:00:00 13,1 11,6 12,5 13 7 22 12 WSW 1022,0 10 0,0
11.08.2018 06:00:00 13,6 11,7 13,0 13 7 25 14 SW 1021,5 10 0,0
11.08.2018 05:00:00 13,4 12,3 12,6 13 7 18 10 SW 1021,1 10 0,0
11.08.2018 04:00:00 13,3 11,6 12,8 11 6 22 12 W 1021,0 10 0,1
11.08.2018 03:00:00 13,4 12,2 13,3 13 7 40 21 WNW 1021,3 9 1,4
11.08.2018 02:00:00 17,3 9,2 17,1 22 12 32 18 WSW 1020,5 10 0,0
11.08.2018 01:00:00 18,0 7,8 17,2 22 12 32 18 SSW 1020,1 10 0,0
11.08.2018 00:00:00 17,9 7,9 17,0 21 11 32 18 SSW 1020,1 10 0,0
10.08.2018 23:00:00 18,3 8,0 17,5 21 11 36 19 SSW 1020,3 10 0,0
10.08.2018 22:00:00 19,1 7,4 18,1 21 11 25 14 SW 1020,4 10 0,0
10.08.2018 21:00:00 19,3 7,3 18,6 18 10 36 19 SW 1020,3 10 0,0
10.08.2018 20:00:00 21,1 6,7 21,2 28 15 36 19 SSW 1020,2 10 0,0
10.08.2018 19:00:00 21,9 7,6 22,9 28 15 43 23 SSW 1020,5 10 0,0
10.08.2018 18:00:00 22,6 7,9 23,5 29 16 43 23 SW 1020,9 10 0,0
10.08.2018 17:00:00 22,2 7,4 23,5 28 15 43 23 SW 1021,2 10 0,0
10.08.2018 16:00:00 22,3 6,7 24,8 24 13 43 23 WSW 1021,7 10 0,0
10.08.2018 15:00:00 21,6 8,1 22,3 28 15 47 25 SW 1022,0 10 0,0
10.08.2018 14:00:00 20,8 7,2 23,4 26 14 43 23 SW 1022,1 10 0,0
10.08.2018 13:00:00 20,1 7,7 22,1 28 15 40 21 SW 1022,5 10 0,0
10.08.2018 12:00:00 20,4 9,2 22,9 31 17 40 21 SW 1022,5 10 0,0
10.08.2018 11:00:00 18,5 9,2 18,5 29 16 40 21 SW 1022,5 10 0,0
10.08.2018 10:00:00 17,1 11,3 17,8 29 16 36 19 SW 1022,4 10 0,0
10.08.2018 09:00:00 16,3 12,0 16,9 26 14 36 19 SW 1021,8 10 0,0
10.08.2018 08:00:00 14,6 11,7 14,7 21 11 25 14 S 1021,6 10 0,0
10.08.2018 07:00:00 13,9 11,7 13,6 18 10 22 12 SSW 1021,2 10 0,0
10.08.2018 06:00:00 13,8 11,7 13,4 18 10 25 14 SSW 1020,5 10 0,0
10.08.2018 05:00:00 12,8 11,5 12,4 15 8 22 12 SSW 1020,1 10 0,0
10.08.2018 04:00:00 13,4 11,7 12,9 18 10 29 16 SW 1019,9 10 0,0
10.08.2018 03:00:00 13,8 11,7 13,4 24 13 32 18 SW 1019,5 10 0,0

tt = Température de l'air
td = dewpoint
tt 5cm = Température de l'air 5cm
ff = Vitesse du vent
fx = gusts
dd = Direction du vent
ppp = reduced air pressure
vv = visibility
rr = Quantités de précipitations

stations d'obs. à proximité